Terminal Aerodrome Forecast
Issued by NWS

Home | Current Version | Previous Version | Text Only | Print | Product List | Glossary On
Versions: 1 2 3 4 5 6 7 8 9 10 11 12 13 14 15
000
FTUS46 KSGX 210500
TAFONT
TAF
KONT 210520Z 2106/2212 24005KT P6SM SKC
      TEMPO 2114/2118 5SM HZ
     FM211900 25012KT P6SM SKC
     FM220400 25005KT P6SM SKC=

USA.gov is the U.S. government's official web portal to all federal, state and local government web resources and services.